THORAD AGENA D DEB, 4708

Orbit data source: Space-Track

THORAD AGENA D DEB, 4708 is space debris in SSO originally from a launch on Wed, 08 Apr 1970 UTC launched from the Air Force Western Test Range (AFWTR). Debris objects in space refer to the collection of defunct objects orbiting the Earth. Examples of debris include non-operational satellites, rocket bodies, and fragments generated from explosions, collisions, or faulty payload assembly.

Loading next visibility...
Identifier
4708, 1970-025BW
Orbit
SSO
Country
Flag of USUS
Related business
Manufacturer
Unknown
Mission
Spacecraft
Bus & Motor
Unknown
Mass
Unknown
Launch date (UTC)
1970-04-08 (56 years ago)
Launch vehicle
Unknown
Launch site
Air Force Western Test Range (AFWTR)
Object type
Payload
Rocket body
Debris
Shape & HBR
Unknown shape, 0.1 m
Radar Cross Section
Small (<0.1 m²)

Expand to show TLE details & history
Last TLE update: 11 hours ago

TLE from 11 hours ago
0 THORAD AGENA D DEB
1 04708U 70025BW  26132.81371252  .00001246  00000-0  10497-2 0  9992
2 04708 100.0357 219.3483 0065522 205.8255 278.9695 13.89114835790313
Epoch: 2026-05-12T19:31Z
TLE epoch observation values (Epoch: 2026-05-12T19:31:44.761Z)
Latitude
54.77144°
Longitude
-109.73509°
Altitude
933.535 km
Speed
7.394 km/s
True Right ascension
03h 35m 08s
True Declination
54° 36' 47"
Sunlit
Object was in daylight at epoch
Visualization orbit readout
Latitude
Unknown
Longitude
Unknown
Altitude
Unknown
Speed
Unknown
Apparent Right ascension
Unknown
Apparent Declination
Unknown
Sunlit
N/A
Visualization observer readout
Local Sidereal Time
14:29:34
Azimuth
Unknown
Elevation
Unknown
Doppler factor
Unknown
Orbital elements
Apogee altitude
976.879 km
Perigee altitude
881.124 km
Semi-major axis
7,307.139 km
Eccentricity
0.00655
Inclination
100.0357°
RAAN
219.3483°
Arg. of periapsis
205.8255°
True anomaly
278.22693°
Mean anomaly
278.9695°
Eccentric anomaly
278.59831°
Mean motion
3.47474 °/min
Orbital period
103.6 mins
BSTAR
0.0010497

Documentation

Showing up to 5 results
|